TimeMST,TemperatureF,Dew PointF,Humidity,Sea Level PressureIn,VisibilityMPH,Wind Direction,Wind SpeedMPH,Gust SpeedMPH,PrecipitationIn,Events,Conditions,WindDirDegrees,DateUTC
12:12 AM,37.6,26.8,65,30.28,10.0,West,5.8,-,N/A,,Clear,260,2012-11-07 07:12:00
12:32 AM,37.6,26.6,65,30.27,10.0,West,5.8,-,N/A,,Clear,270,2012-11-07 07:32:00
12:52 AM,36.7,27.0,68,30.27,10.0,West,4.6,-,N/A,,Clear,260,2012-11-07 07:52:00
1:12 AM,35.8,26.4,69,30.26,10.0,West,5.8,-,N/A,,Clear,280,2012-11-07 08:12:00
1:52 AM,36.1,26.8,69,30.26,10.0,West,5.8,-,N/A,,Clear,280,2012-11-07 08:52:00
2:12 AM,34.2,25.7,71,30.24,10.0,WNW,6.9,-,N/A,,Clear,290,2012-11-07 09:12:00
2:32 AM,34.2,26.2,73,30.24,10.0,West,6.9,-,N/A,,Clear,280,2012-11-07 09:32:00
2:52 AM,34.3,26.2,72,30.23,10.0,West,6.9,-,N/A,,Clear,280,2012-11-07 09:52:00
3:12 AM,34.9,25.9,70,30.23,10.0,West,6.9,-,N/A,,Clear,270,2012-11-07 10:12:00
3:32 AM,36.5,25.9,65,30.22,10.0,West,6.9,-,N/A,,Clear,260,2012-11-07 10:32:00
3:52 AM,33.8,25.5,72,30.22,10.0,West,9.2,-,N/A,,Clear,280,2012-11-07 10:52:00
4:12 AM,34.3,25.5,70,30.21,10.0,West,8.1,-,N/A,,Clear,280,2012-11-07 11:12:00
5:12 AM,39.2,20.1,46,30.21,10.0,Calm,Calm,-,N/A,,Clear,0,2012-11-07 12:12:00
5:32 AM,35.2,19.6,53,30.20,10.0,West,11.5,-,N/A,,Clear,280,2012-11-07 12:32:00
5:52 AM,35.2,19.9,54,30.19,10.0,West,8.1,-,N/A,,Clear,280,2012-11-07 12:52:00
6:12 AM,35.8,20.1,53,30.19,10.0,WNW,8.1,-,N/A,,Clear,300,2012-11-07 13:12:00
6:32 AM,35.6,19.9,53,30.19,10.0,West,11.5,-,N/A,,Clear,280,2012-11-07 13:32:00
6:52 AM,34.5,20.3,56,30.20,10.0,West,10.4,-,N/A,,Clear,280,2012-11-07 13:52:00
7:12 AM,39.6,21.0,48,30.20,10.0,WNW,5.8,-,N/A,,Clear,290,2012-11-07 14:12:00
7:32 AM,45.3,23.9,43,30.20,10.0,West,10.4,-,N/A,,Clear,280,2012-11-07 14:32:00
7:52 AM,52.9,23.2,31,30.20,10.0,WNW,4.6,-,N/A,,Clear,290,2012-11-07 14:52:00
8:12 AM,57.6,20.7,24,30.20,10.0,Calm,Calm,-,N/A,,Clear,0,2012-11-07 15:12:00
8:32 AM,59.4,19.6,21,30.20,10.0,SW,3.5,-,N/A,,Clear,220,2012-11-07 15:32:00
8:52 AM,60.8,19.8,21,30.20,10.0,Calm,Calm,-,N/A,,Clear,0,2012-11-07 15:52:00
9:12 AM,62.6,20.1,20,30.19,10.0,SSE,3.5,-,N/A,,Clear,160,2012-11-07 16:12:00
9:32 AM,63.1,20.5,19,30.19,10.0,SE,4.6,-,N/A,,Clear,140,2012-11-07 16:32:00
9:52 AM,64.2,19.8,18,30.18,10.0,SE,3.5,-,N/A,,Clear,130,2012-11-07 16:52:00
10:12 AM,64.2,18.3,17,30.17,10.0,SE,6.9,-,N/A,,Clear,140,2012-11-07 17:12:00
10:32 AM,65.3,17.8,16,30.17,10.0,SE,5.8,-,N/A,,Clear,140,2012-11-07 17:32:00
10:52 AM,65.8,17.2,15,30.15,10.0,SE,4.6,-,N/A,,Clear,140,2012-11-07 17:52:00
11:12 AM,66.4,17.2,15,30.14,10.0,SSE,6.9,-,N/A,,Clear,150,2012-11-07 18:12:00
11:32 AM,67.1,16.3,14,30.12,10.0,SSE,8.1,-,N/A,,Clear,150,2012-11-07 18:32:00
11:52 AM,67.6,17.1,14,30.12,10.0,SE,5.8,-,N/A,,Clear,140,2012-11-07 18:52:00
12:12 PM,67.3,17.1,15,30.10,10.0,SE,8.1,-,N/A,,Clear,140,2012-11-07 19:12:00
12:32 PM,67.8,16.2,14,30.09,10.0,SSE,3.5,-,N/A,,Clear,150,2012-11-07 19:32:00
12:52 PM,67.8,15.4,13,30.08,10.0,SSE,8.1,-,N/A,,Clear,160,2012-11-07 19:52:00
1:12 PM,68.4,15.4,13,30.07,10.0,SSE,10.4,17.3,N/A,,Clear,160,2012-11-07 20:12:00
1:32 PM,68.5,15.1,13,30.07,10.0,SE,8.1,19.6,N/A,,Clear,140,2012-11-07 20:32:00
1:52 PM,68.2,17.2,14,30.06,10.0,South,12.7,18.4,N/A,,Clear,180,2012-11-07 20:52:00
2:12 PM,68.2,15.4,13,30.06,10.0,South,8.1,18.4,N/A,,Clear,190,2012-11-07 21:12:00
2:32 PM,67.3,16.7,14,30.06,10.0,SSW,13.8,19.6,N/A,,Clear,200,2012-11-07 21:32:00
2:52 PM,67.8,17.6,15,30.05,10.0,SSE,11.5,19.6,N/A,,Clear,160,2012-11-07 21:52:00
3:12 PM,66.6,17.6,15,30.06,10.0,South,13.8,23.0,N/A,,Clear,180,2012-11-07 22:12:00
3:32 PM,65.3,17.1,16,30.06,10.0,SSE,12.7,23.0,N/A,,Clear,160,2012-11-07 22:32:00
3:51 PM,63.1,17.4,17,30.06,10.0,SSE,13.8,23.0,N/A,,Clear,160,2012-11-07 22:51:00
4:11 PM,60.6,17.6,19,30.06,10.0,SSE,8.1,-,N/A,,Clear,150,2012-11-07 23:11:00
4:31 PM,56.8,16.9,21,30.06,10.0,SE,8.1,-,N/A,,Clear,130,2012-11-07 23:31:00
4:51 PM,55.0,16.5,22,30.06,10.0,SSW,5.8,-,N/A,,Clear,200,2012-11-07 23:51:00
5:11 PM,51.1,16.2,25,30.06,10.0,SW,4.6,-,N/A,,Clear,220,2012-11-08 00:11:00
5:31 PM,50.9,16.7,26,30.06,10.0,SSW,6.9,-,N/A,,Clear,210,2012-11-08 00:31:00
5:51 PM,51.1,17.4,26,30.06,10.0,SSW,6.9,-,N/A,,Clear,210,2012-11-08 00:51:00
6:11 PM,49.3,18.5,30,30.06,10.0,SW,3.5,-,N/A,,Clear,220,2012-11-08 01:11:00
6:31 PM,49.1,19.9,32,30.06,10.0,South,5.8,-,N/A,,Clear,190,2012-11-08 01:31:00
6:51 PM,48.0,19.9,33,30.06,10.0,SSW,5.8,-,N/A,,Clear,200,2012-11-08 01:51:00
7:11 PM,44.2,19.2,37,30.06,10.0,Calm,Calm,-,N/A,,Clear,0,2012-11-08 02:11:00
7:31 PM,40.5,20.3,45,30.06,10.0,NW,6.9,-,N/A,,Clear,310,2012-11-08 02:31:00
7:52 PM,39.4,21.0,48,30.05,10.0,West,4.6,-,N/A,,Clear,260,2012-11-08 02:52:00
8:11 PM,41.4,21.2,45,30.05,10.0,West,6.9,-,N/A,,Clear,260,2012-11-08 03:11:00
8:32 PM,40.6,21.2,46,30.05,10.0,West,9.2,-,N/A,,Clear,280,2012-11-08 03:32:00
8:51 PM,44.1,21.9,42,30.05,10.0,Calm,Calm,-,N/A,,Clear,0,2012-11-08 03:51:00
9:11 PM,47.5,21.7,36,30.05,10.0,Calm,Calm,-,N/A,,Clear,0,2012-11-08 04:11:00
9:31 PM,45.0,20.5,38,30.04,10.0,Calm,Calm,-,N/A,,Clear,0,2012-11-08 04:31:00
9:51 PM,44.2,19.0,37,30.04,10.0,North,8.1,-,N/A,,Clear,10,2012-11-08 04:51:00
10:11 PM,45.1,14.7,29,30.04,10.0,NNW,11.5,-,N/A,,Clear,330,2012-11-08 05:11:00
10:32 PM,50.0,14.9,25,30.04,10.0,NNW,11.5,-,N/A,,Clear,330,2012-11-08 05:32:00
10:52 PM,52.5,12.7,21,30.04,10.0,NW,15.0,23.0,N/A,,Clear,320,2012-11-08 05:52:00
11:12 PM,51.3,12.9,22,30.04,10.0,NW,12.7,-,N/A,,Clear,320,2012-11-08 06:12:00
11:32 PM,50.4,12.2,22,30.04,10.0,NNW,10.4,-,N/A,,Clear,330,2012-11-08 06:32:00
11:52 PM,48.4,12.2,23,30.03,10.0,NW,13.8,-,N/A,,Clear,320,2012-11-08 06:52:00